QPF
0.00 0.00 0.01 0.02 0.03 0.03 0.02 0.01 0.01 0.01 0.01 0.01 0.01 0.01 0.03 0.03 0.03 0.02 0.01 0.01 0.02 0.03 0.04 0.08 0.06 0.03 0.04 0.04 0.03 0.03 0.02 0.02 0.03 0.03 0.03 0.03 0.02 0.02 0.02 0.01 0.01 0.01 0.01
0.00 0.00 0.01 0.02 0.04 0.04 0.03 0.02 0.01 0.01 0.01 0.01 0.01 0.01 0.02 0.02 0.03 0.03 0.03 0.01 0.02 0.03 0.03 0.05 0.08 0.05 0.03 0.04 0.04 0.03 0.02 0.02 0.02 0.02 0.02 0.02 0.02 0.02 0.02 0.01 0.01 0.01 0.02
0.00 0.00 0.01 0.02 0.04 0.04 0.04 0.03 0.02 0.02 0.01 0.01 0.01 0.01 0.02 0.02 0.02 0.02 0.03 0.03 0.03 0.03 0.03 0.03 0.05 0.05 0.04 0.04 0.04 0.04 0.03 0.02 0.02 0.01 0.01 0.01 0.01 0.02 0.02 0.02 0.01 0.01 0.02
0.00 0.00 0.01 0.02 0.03 0.04 0.04 0.03 0.03 0.03 0.02 0.02 0.01 0.02 0.02 0.02 0.02 0.02 0.03 0.04 0.03 0.03 0.02 0.02 0.04 0.04 0.04 0.03 0.04 0.05 0.04 0.03 0.02 0.01 0.01 0.01 0.01 0.02 0.02 0.02 0.02 0.01 0.01
0.01 0.00 0.01 0.02 0.03 0.04 0.04 0.03 0.03 0.03 0.03 0.03 0.03 0.02 0.03 0.03 0.03 0.02 0.03 0.04 0.03 0.03 0.03 0.02 0.03 0.05 0.05 0.03 0.03 0.04 0.05 0.03 0.03 0.01 0.01 0.00 0.01 0.01 0.02 0.02 0.02 0.01 0.01
0.01 0.00 0.01 0.02 0.03 0.04 0.04 0.03 0.03 0.04 0.04 0.04 0.03 0.03 0.03 0.03 0.03 0.02 0.03 0.03 0.03 0.03 0.03 0.03 0.03 0.04 0.04 0.04 0.03 0.02 0.04 0.04 0.03 0.02 0.01 0.01 0.00 0.01 0.01 0.02 0.02 0.01 0.01
0.01 0.01 0.02 0.03 0.04 0.04 0.04 0.03 0.03 0.03 0.04 0.04 0.04 0.03 0.03 0.03 0.03 0.02 0.03 0.03 0.02 0.02 0.02 0.02 0.02 0.02 0.02 0.03 0.03 0.03 0.02 0.04 0.04 0.02 0.01 0.01 0.01 0.01 0.01 0.01 0.02 0.01 0.01
0.01 0.01 0.02 0.04 0.05 0.05 0.05 0.04 0.03 0.03 0.04 0.05 0.04 0.03 0.03 0.03 0.03 0.03 0.03 0.02 0.03 0.03 0.02 0.02 0.01 0.02 0.02 0.02 0.03 0.04 0.05 0.04 0.03 0.02 0.01 0.01 0.01 0.01 0.01 0.01 0.01 0.01 0.01
0.01 0.02 0.02 0.04 0.04 0.04 0.04 0.04 0.03 0.04 0.04 0.05 0.05 0.04 0.03 0.03 0.04 0.04 0.03 0.02 0.02 0.02 0.02 0.02 0.02 0.01 0.02 0.02 0.02 0.04 0.06 0.08 0.04 0.02 0.01 0.01 0.01 0.01 0.01 0.01 0.02 0.02 0.01
0.00 0.01 0.03 0.04 0.03 0.03 0.03 0.03 0.02 0.03 0.04 0.06 0.05 0.04 0.03 0.04 0.04 0.04 0.02 0.02 0.02 0.02 0.02 0.02 0.02 0.01 0.02 0.02 0.02 0.03 0.05 0.09 0.09 0.05 0.03 0.01 0.01 0.01 0.01 0.02 0.02 0.02 0.01
0.00 0.01 0.02 0.04 0.04 0.04 0.03 0.02 0.03 0.04 0.05 0.07 0.07 0.04 0.03 0.04 0.05 0.04 0.03 0.02 0.02 0.02 0.02 0.02 0.02 0.02 0.02 0.02 0.02 0.01 0.02 0.07 0.09 0.08 0.05 0.03 0.02 0.01 0.01 0.02 0.02 0.02 0.02
0.00 0.01 0.02 0.03 0.05 0.05 0.03 0.03 0.04 0.04 0.05 0.07 0.08 0.06 0.04 0.03 0.04 0.04 0.03 0.03 0.02 0.02 0.02 0.01 0.02 0.02 0.02 0.02 0.02 0.01 0.01 0.04 0.10 0.12 0.12 0.08 0.04 0.03 0.02 0.03 0.03 0.03 0.02
0.00 0.00 0.01 0.03 0.04 0.04 0.03 0.02 0.03 0.03 0.04 0.06 0.06 0.06 0.05 0.04 0.04 0.05 0.04 0.04 0.03 0.02 0.02 0.01 0.02 0.02 0.02 0.02 0.02 0.01 0.01 0.01 0.04 0.09 0.11 0.12 0.08 0.04 0.03 0.03 0.03 0.03 0.03
0.00 0.00 0.01 0.03 0.05 0.04 0.04 0.02 0.02 0.03 0.04 0.04 0.04 0.05 0.06 0.05 0.06 0.06 0.04 0.03 0.02 0.02 0.02 0.01 0.01 0.01 0.01 0.01 0.02 0.01 0.01 0.01 0.01 0.03 0.06 0.09 0.09 0.06 0.03 0.03 0.03 0.03 0.03
0.01 0.01 0.01 0.02 0.05 0.04 0.04 0.03 0.02 0.02 0.03 0.04 0.04 0.05 0.05 0.05 0.06 0.06 0.03 0.02 0.02 0.02 0.01 0.01 0.01 0.01 0.02 0.02 0.02 0.01 0.01 0.01 0.01 0.01 0.03 0.05 0.05 0.04 0.03 0.03 0.03 0.04 0.04
0.01 0.01 0.01 0.02 0.04 0.04 0.04 0.03 0.02 0.02 0.03 0.04 0.04 0.04 0.04 0.05 0.07 0.07 0.04 0.02 0.02 0.02 0.02 0.01 0.01 0.01 0.02 0.02 0.02 0.02 0.02 0.01 0.01 0.01 0.01 0.02 0.03 0.02 0.02 0.03 0.03 0.04 0.04
0.01 0.01 0.02 0.03 0.05 0.05 0.03 0.03 0.03 0.03 0.04 0.04 0.04 0.05 0.05 0.04 0.05 0.07 0.05 0.02 0.01 0.02 0.02 0.02 0.01 0.01 0.01 0.02 0.02 0.02 0.01 0.01 0.01 0.01 0.01 0.02 0.02 0.02 0.01 0.02 0.03 0.04 0.05
0.01 0.01 0.02 0.03 0.04 0.05 0.04 0.03 0.03 0.03 0.04 0.04 0.05 0.05 0.06 0.06 0.07 0.07 0.06 0.03 0.02 0.02 0.02 0.02 0.01 0.01 0.01 0.02 0.02 0.02 0.02 0.01 0.01 0.01 0.01 0.02 0.02 0.02 0.01 0.01 0.01 0.03 0.04
0.02 0.02 0.02 0.03 0.03 0.04 0.04 0.02 0.02 0.03 0.04 0.06 0.06 0.08 0.08 0.09 0.09 0.09 0.09 0.06 0.04 0.03 0.02 0.03 0.02 0.02 0.01 0.01 0.02 0.02 0.02 0.02 0.01 0.01 0.01 0.01 0.02 0.02 0.02 0.02 0.01 0.02 0.03
0.06 0.04 0.03 0.03 0.03 0.03 0.04 0.03 0.03 0.04 0.04 0.05 0.06 0.08 0.09 0.09 0.11 0.11 0.10 0.09 0.06 0.04 0.03 0.03 0.03 0.03 0.02 0.01 0.01 0.01 0.02 0.02 0.02 0.02 0.02 0.01 0.01 0.01 0.02 0.01 0.02 0.02 0.03
0.06 0.05 0.06 0.06 0.05 0.05 0.04 0.04 0.04 0.05 0.04 0.04 0.06 0.07 0.09 0.08 0.09 0.10 0.10 0.12 0.11 0.07 0.05 0.04 0.04 0.03 0.03 0.02 0.02 0.02 0.02 0.02 0.02 0.02 0.03 0.03 0.02 0.02 0.02 0.01 0.01 0.01 0.03
0.06 0.04 0.04 0.06 0.07 0.07 0.05 0.03 0.03 0.05 0.05 0.04 0.06 0.06 0.07 0.07 0.08 0.09 0.07 0.08 0.10 0.10 0.08 0.07 0.06 0.05 0.04 0.04 0.03 0.02 0.02 0.03 0.03 0.03 0.03 0.03 0.03 0.03 0.03 0.03 0.02 0.01 0.02
0.08 0.05 0.03 0.03 0.06 0.08 0.07 0.05 0.03 0.03 0.04 0.05 0.04 0.06 0.07 0.08 0.08 0.08 0.07 0.07 0.08 0.09 0.08 0.07 0.07 0.06 0.06 0.05 0.04 0.03 0.03 0.02 0.02 0.02 0.03 0.03 0.03 0.03 0.03 0.03 0.03 0.02 0.02
0.06 0.05 0.04 0.03 0.03 0.06 0.07 0.06 0.04 0.03 0.02 0.04 0.04 0.04 0.05 0.07 0.08 0.07 0.06 0.07 0.07 0.08 0.08 0.07 0.06 0.06 0.06 0.06 0.06 0.04 0.03 0.02 0.02 0.02 0.02 0.03 0.04 0.04 0.04 0.04 0.03 0.02 0.02
0.02 0.03 0.03 0.03 0.03 0.03 0.04 0.04 0.04 0.04 0.04 0.03 0.03 0.04 0.05 0.06 0.06 0.06 0.06 0.06 0.05 0.06 0.07 0.07 0.07 0.07 0.06 0.06 0.06 0.05 0.04 0.03 0.02 0.02 0.02 0.02 0.03 0.03 0.04 0.04 0.04 0.03 0.02
0.00 0.01 0.01 0.01 0.01 0.02 0.02 0.02 0.03 0.03 0.03 0.04 0.04 0.05 0.05 0.06 0.06 0.05 0.06 0.06 0.05 0.05 0.05 0.07 0.07 0.07 0.06 0.05 0.05 0.06 0.05 0.05 0.04 0.03 0.02 0.02 0.02 0.03 0.03 0.03 0.03 0.03 0.02
MSLP
1011.82 1012.00 1012.37 1012.88 1013.45 1013.99 1014.43 1014.72 1014.86 1014.88 1014.82 1014.74 1014.71 1014.74 1014.85 1015.01 1015.21 1015.40 1015.55 1015.66 1015.72 1015.76 1015.76 1015.77 1015.78 1015.79 1015.80 1015.81 1015.80 1015.79 1015.77 1015.76 1015.76 1015.76 1015.76 1015.73 1015.66 1015.55 1015.38 1015.19 1014.98 1014.77 1014.60
1011.55 1011.76 1012.16 1012.69 1013.28 1013.85 1014.31 1014.63 1014.79 1014.83 1014.79 1014.74 1014.72 1014.78 1014.91 1015.10 1015.30 1015.49 1015.65 1015.75 1015.81 1015.84 1015.85 1015.86 1015.88 1015.91 1015.94 1015.96 1015.96 1015.95 1015.93 1015.92 1015.92 1015.92 1015.92 1015.90 1015.84 1015.73 1015.58 1015.38 1015.17 1014.96 1014.77
1011.29 1011.53 1011.95 1012.49 1013.09 1013.66 1014.13 1014.46 1014.65 1014.72 1014.72 1014.71 1014.74 1014.83 1014.98 1015.17 1015.38 1015.56 1015.70 1015.79 1015.84 1015.85 1015.87 1015.89 1015.93 1015.98 1016.03 1016.06 1016.07 1016.06 1016.04 1016.02 1016.01 1016.00 1015.99 1015.97 1015.91 1015.81 1015.67 1015.48 1015.28 1015.07 1014.88
1011.08 1011.34 1011.77 1012.31 1012.90 1013.45 1013.92 1014.26 1014.47 1014.57 1014.62 1014.66 1014.73 1014.86 1015.03 1015.24 1015.43 1015.60 1015.72 1015.78 1015.81 1015.82 1015.84 1015.88 1015.94 1016.01 1016.08 1016.13 1016.16 1016.15 1016.13 1016.09 1016.06 1016.04 1016.01 1015.98 1015.92 1015.83 1015.69 1015.52 1015.32 1015.13 1014.96
1010.92 1011.22 1011.66 1012.18 1012.75 1013.28 1013.72 1014.06 1014.28 1014.41 1014.50 1014.58 1014.70 1014.86 1015.06 1015.27 1015.46 1015.61 1015.71 1015.75 1015.76 1015.77 1015.79 1015.84 1015.92 1016.02 1016.12 1016.20 1016.23 1016.23 1016.20 1016.16 1016.11 1016.07 1016.03 1015.98 1015.91 1015.82 1015.68 1015.52 1015.33 1015.16 1015.00
1010.85 1011.18 1011.62 1012.12 1012.65 1013.15 1013.56 1013.88 1014.10 1014.25 1014.37 1014.50 1014.65 1014.85 1015.06 1015.28 1015.47 1015.61 1015.68 1015.71 1015.71 1015.72 1015.75 1015.81 1015.91 1016.03 1016.15 1016.24 1016.29 1016.30 1016.27 1016.22 1016.16 1016.11 1016.05 1015.99 1015.92 1015.81 1015.68 1015.52 1015.34 1015.18 1015.03
1010.84 1011.20 1011.63 1012.12 1012.61 1013.06 1013.44 1013.74 1013.95 1014.11 1014.25 1014.40 1014.59 1014.80 1015.04 1015.27 1015.46 1015.59 1015.67 1015.69 1015.69 1015.70 1015.74 1015.81 1015.92 1016.05 1016.18 1016.28 1016.33 1016.34 1016.31 1016.26 1016.20 1016.14 1016.08 1016.02 1015.94 1015.83 1015.70 1015.53 1015.36 1015.19 1015.05
1010.88 1011.25 1011.67 1012.13 1012.58 1013.00 1013.34 1013.61 1013.81 1013.97 1014.12 1014.29 1014.49 1014.73 1014.97 1015.21 1015.41 1015.56 1015.64 1015.68 1015.69 1015.71 1015.75 1015.83 1015.93 1016.06 1016.17 1016.26 1016.31 1016.32 1016.30 1016.25 1016.20 1016.15 1016.10 1016.04 1015.97 1015.87 1015.73 1015.56 1015.38 1015.21 1015.06
1010.92 1011.27 1011.67 1012.10 1012.52 1012.90 1013.22 1013.47 1013.66 1013.82 1013.97 1014.14 1014.35 1014.59 1014.85 1015.10 1015.32 1015.48 1015.59 1015.65 1015.69 1015.72 1015.77 1015.84 1015.93 1016.03 1016.13 1016.19 1016.22 1016.22 1016.20 1016.16 1016.13 1016.10 1016.08 1016.04 1015.99 1015.89 1015.76 1015.59 1015.40 1015.21 1015.04
1010.89 1011.22 1011.59 1011.99 1012.38 1012.73 1013.03 1013.27 1013.45 1013.61 1013.77 1013.94 1014.15 1014.39 1014.65 1014.91 1015.14 1015.33 1015.47 1015.57 1015.64 1015.69 1015.75 1015.82 1015.89 1015.96 1016.02 1016.05 1016.06 1016.04 1016.02 1016.00 1015.99 1015.99 1016.00 1016.00 1015.97 1015.90 1015.77 1015.60 1015.39 1015.18 1014.99
1010.75 1011.04 1011.38 1011.75 1012.11 1012.45 1012.75 1012.99 1013.18 1013.35 1013.51 1013.68 1013.89 1014.12 1014.38 1014.63 1014.88 1015.09 1015.27 1015.40 1015.51 1015.59 1015.67 1015.73 1015.79 1015.84 1015.86 1015.85 1015.83 1015.80 1015.78 1015.77 1015.79 1015.83 1015.87 1015.91 1015.91 1015.86 1015.75 1015.58 1015.37 1015.13 1014.90
1010.47 1010.72 1011.03 1011.38 1011.74 1012.08 1012.38 1012.64 1012.85 1013.03 1013.20 1013.37 1013.57 1013.79 1014.04 1014.29 1014.54 1014.77 1014.98 1015.15 1015.30 1015.42 1015.52 1015.59 1015.64 1015.66 1015.66 1015.63 1015.58 1015.54 1015.51 1015.51 1015.55 1015.62 1015.71 1015.78 1015.82 1015.79 1015.70 1015.53 1015.31 1015.06 1014.81
1010.05 1010.28 1010.57 1010.91 1011.28 1011.63 1011.96 1012.24 1012.48 1012.69 1012.87 1013.05 1013.24 1013.45 1013.68 1013.93 1014.17 1014.42 1014.64 1014.85 1015.03 1015.18 1015.31 1015.40 1015.46 1015.48 1015.46 1015.41 1015.35 1015.30 1015.27 1015.27 1015.32 1015.42 1015.52 1015.62 1015.69 1015.68 1015.61 1015.45 1015.23 1014.98 1014.71
1009.52 1009.75 1010.05 1010.40 1010.77 1011.16 1011.51 1011.84 1012.12 1012.36 1012.56 1012.76 1012.95 1013.15 1013.36 1013.59 1013.83 1014.08 1014.31 1014.54 1014.75 1014.94 1015.10 1015.21 1015.29 1015.31 1015.30 1015.24 1015.17 1015.11 1015.07 1015.07 1015.12 1015.22 1015.33 1015.44 1015.52 1015.54 1015.48 1015.35 1015.14 1014.89 1014.62
1008.92 1009.18 1009.50 1009.88 1010.29 1010.70 1011.10 1011.47 1011.80 1012.08 1012.32 1012.54 1012.74 1012.94 1013.14 1013.36 1013.58 1013.82 1014.06 1014.30 1014.52 1014.74 1014.92 1015.06 1015.16 1015.20 1015.19 1015.14 1015.07 1014.99 1014.93 1014.91 1014.95 1015.02 1015.13 1015.23 1015.32 1015.35 1015.31 1015.20 1015.02 1014.80 1014.55
1008.31 1008.61 1008.98 1009.40 1009.85 1010.31 1010.75 1011.17 1011.54 1011.87 1012.16 1012.40 1012.63 1012.84 1013.04 1013.25 1013.47 1013.69 1013.92 1014.16 1014.40 1014.62 1014.82 1014.98 1015.09 1015.15 1015.15 1015.10 1015.02 1014.92 1014.84 1014.78 1014.77 1014.81 1014.88 1014.97 1015.05 1015.10 1015.09 1015.01 1014.87 1014.69 1014.47
1007.69 1008.06 1008.49 1008.96 1009.46 1009.96 1010.45 1010.92 1011.34 1011.72 1012.05 1012.34 1012.60 1012.83 1013.05 1013.26 1013.48 1013.69 1013.92 1014.15 1014.37 1014.59 1014.80 1014.97 1015.09 1015.16 1015.16 1015.11 1015.01 1014.88 1014.75 1014.64 1014.57 1014.56 1014.58 1014.64 1014.71 1014.77 1014.79 1014.76 1014.67 1014.55 1014.38
1007.10 1007.54 1008.02 1008.54 1009.09 1009.64 1010.17 1010.68 1011.15 1011.58 1011.96 1012.29 1012.59 1012.86 1013.11 1013.34 1013.57 1013.79 1014.00 1014.22 1014.44 1014.65 1014.84 1015.01 1015.13 1015.19 1015.19 1015.12 1014.99 1014.82 1014.64 1014.47 1014.33 1014.24 1014.22 1014.24 1014.29 1014.36 1014.41 1014.43 1014.42 1014.35 1014.25
1006.54 1007.03 1007.56 1008.12 1008.71 1009.29 1009.87 1010.41 1010.92 1011.39 1011.82 1012.20 1012.55 1012.86 1013.15 1013.42 1013.66 1013.89 1014.11 1014.32 1014.53 1014.73 1014.91 1015.06 1015.18 1015.23 1015.21 1015.12 1014.96 1014.75 1014.50 1014.26 1014.04 1013.89 1013.80 1013.78 1013.81 1013.89 1013.98 1014.06 1014.10 1014.11 1014.07
1006.01 1006.52 1007.08 1007.67 1008.28 1008.90 1009.50 1010.07 1010.61 1011.11 1011.57 1012.00 1012.39 1012.75 1013.09 1013.40 1013.68 1013.93 1014.17 1014.39 1014.59 1014.78 1014.95 1015.09 1015.20 1015.24 1015.21 1015.10 1014.91 1014.66 1014.36 1014.05 1013.76 1013.53 1013.38 1013.32 1013.33 1013.41 1013.53 1013.65 1013.76 1013.83 1013.84
1005.52 1006.03 1006.59 1007.19 1007.81 1008.44 1009.06 1009.65 1010.20 1010.72 1011.20 1011.66 1012.09 1012.49 1012.87 1013.23 1013.55 1013.85 1014.11 1014.35 1014.56 1014.75 1014.92 1015.07 1015.17 1015.22 1015.19 1015.07 1014.87 1014.59 1014.25 1013.89 1013.54 1013.25 1013.04 1012.93 1012.91 1012.99 1013.11 1013.27 1013.42 1013.53 1013.58
1005.10 1005.57 1006.11 1006.70 1007.33 1007.96 1008.57 1009.16 1009.72 1010.24 1010.73 1011.19 1011.64 1012.08 1012.49 1012.89 1013.26 1013.60 1013.91 1014.17 1014.41 1014.62 1014.81 1014.97 1015.09 1015.16 1015.15 1015.05 1014.86 1014.58 1014.23 1013.84 1013.45 1013.11 1012.84 1012.68 1012.63 1012.67 1012.80 1012.96 1013.12 1013.25 1013.32
1004.80 1005.21 1005.71 1006.28 1006.88 1007.50 1008.11 1008.68 1009.22 1009.72 1010.20 1010.65 1011.10 1011.55 1011.99 1012.43 1012.84 1013.22 1013.56 1013.87 1014.14 1014.38 1014.59 1014.79 1014.94 1015.05 1015.09 1015.04 1014.90 1014.65 1014.32 1013.93 1013.53 1013.15 1012.84 1012.63 1012.52 1012.53 1012.61 1012.74 1012.89 1013.01 1013.08
1004.64 1005.00 1005.45 1005.97 1006.55 1007.14 1007.72 1008.27 1008.78 1009.25 1009.69 1010.11 1010.55 1010.99 1011.44 1011.89 1012.33 1012.75 1013.13 1013.47 1013.77 1014.04 1014.29 1014.52 1014.73 1014.90 1015.01 1015.03 1014.96 1014.78 1014.51 1014.16 1013.76 1013.38 1013.03 1012.77 1012.61 1012.54 1012.56 1012.64 1012.74 1012.83 1012.87
1004.67 1004.96 1005.35 1005.83 1006.37 1006.93 1007.47 1007.98 1008.44 1008.86 1009.25 1009.64 1010.04 1010.46 1010.90 1011.36 1011.81 1012.25 1012.65 1013.01 1013.33 1013.63 1013.91 1014.18 1014.44 1014.68 1014.87 1014.99 1015.01 1014.93 1014.74 1014.46 1014.11 1013.73 1013.37 1013.06 1012.83 1012.69 1012.63 1012.62 1012.65 1012.67 1012.67
1004.86 1005.09 1005.43 1005.87 1006.36 1006.87 1007.36 1007.82 1008.23 1008.59 1008.93 1009.27 1009.63 1010.01 1010.44 1010.88 1011.33 1011.77 1012.17 1012.53 1012.86 1013.17 1013.46 1013.76 1014.06 1014.35 1014.63 1014.84 1014.98 1015.01 1014.93 1014.74 1014.46 1014.11 1013.75 1013.41 1013.12 1012.90 1012.75 1012.65 1012.59 1012.53 1012.47
Thickness
5719 5719 5717 5718 5720 5721 5721 5722 5722 5723 5724 5725 5725 5725 5725 5725 5726 5726 5726 5726 5726 5726 5726 5726 5725 5725 5725 5724 5724 5724 5723 5723 5722 5722 5722 5722 5721 5721 5721 5721 5721 5722 5720
5716 5716 5713 5714 5716 5717 5717 5718 5718 5719 5719 5720 5721 5721 5721 5722 5722 5722 5722 5722 5722 5722 5722 5722 5722 5721 5721 5720 5720 5720 5719 5719 5718 5718 5718 5718 5717 5717 5717 5717 5717 5718 5716
5711 5711 5710 5710 5711 5712 5713 5713 5714 5714 5715 5715 5716 5717 5717 5717 5718 5718 5718 5717 5717 5718 5718 5718 5717 5716 5716 5716 5716 5715 5715 5714 5714 5714 5714 5716 5715 5713 5713 5713 5713 5713 5713
5705 5705 5705 5704 5706 5707 5708 5708 5709 5709 5710 5711 5711 5712 5712 5712 5713 5713 5713 5713 5713 5713 5713 5713 5713 5712 5712 5711 5711 5711 5710 5710 5709 5710 5712 5713 5712 5710 5709 5709 5709 5709 5709
5698 5699 5699 5699 5700 5701 5702 5703 5703 5704 5705 5705 5706 5707 5707 5707 5708 5708 5708 5708 5708 5708 5708 5707 5707 5707 5707 5706 5706 5706 5705 5705 5705 5706 5708 5708 5708 5706 5706 5705 5705 5705 5705
5692 5692 5692 5692 5693 5694 5695 5697 5698 5698 5699 5699 5700 5701 5702 5702 5702 5703 5703 5702 5702 5702 5702 5702 5702 5702 5701 5701 5701 5701 5700 5700 5701 5703 5704 5704 5704 5702 5702 5701 5701 5701 5701
5685 5685 5685 5685 5686 5687 5689 5690 5691 5692 5693 5693 5694 5695 5695 5696 5696 5696 5696 5697 5697 5697 5697 5697 5696 5696 5696 5696 5696 5696 5695 5695 5697 5698 5699 5699 5698 5697 5697 5697 5697 5697 5697
5677 5677 5678 5678 5679 5680 5681 5683 5684 5685 5686 5687 5687 5688 5688 5689 5689 5689 5690 5690 5690 5691 5691 5691 5691 5690 5690 5690 5690 5690 5690 5690 5692 5693 5694 5694 5693 5693 5693 5693 5693 5693 5693
5669 5670 5671 5671 5672 5673 5674 5675 5676 5677 5678 5679 5680 5680 5681 5682 5682 5683 5683 5683 5684 5684 5684 5685 5685 5684 5684 5684 5684 5684 5684 5685 5687 5689 5689 5688 5687 5688 5688 5688 5688 5688 5688
5661 5662 5663 5664 5665 5666 5666 5667 5668 5668 5669 5671 5672 5672 5673 5675 5675 5676 5676 5676 5677 5677 5678 5678 5678 5678 5678 5677 5677 5678 5678 5679 5682 5683 5683 5683 5682 5682 5682 5683 5683 5683 5683
5653 5654 5655 5656 5657 5658 5659 5659 5660 5660 5661 5662 5663 5664 5666 5667 5668 5669 5669 5669 5670 5670 5670 5670 5671 5671 5671 5671 5671 5671 5672 5675 5676 5677 5677 5676 5675 5676 5676 5677 5677 5678 5678
5645 5646 5647 5648 5649 5649 5650 5651 5652 5653 5653 5654 5655 5657 5658 5659 5660 5661 5661 5661 5662 5662 5662 5663 5663 5663 5664 5665 5665 5665 5667 5669 5670 5671 5670 5669 5669 5670 5670 5671 5671 5672 5672
5637 5637 5637 5639 5640 5641 5642 5643 5644 5645 5646 5646 5647 5648 5649 5651 5652 5653 5654 5654 5654 5654 5655 5655 5656 5657 5658 5659 5660 5660 5661 5662 5663 5664 5664 5662 5662 5663 5664 5664 5665 5666 5666
5629 5629 5629 5630 5631 5632 5634 5635 5636 5637 5638 5639 5639 5639 5641 5642 5643 5644 5645 5645 5646 5647 5647 5648 5649 5650 5651 5652 5652 5653 5654 5655 5655 5656 5656 5655 5655 5656 5656 5657 5658 5660 5660
5621 5620 5621 5621 5623 5624 5625 5627 5628 5629 5630 5630 5630 5631 5632 5633 5634 5635 5635 5636 5637 5637 5638 5639 5640 5642 5643 5644 5645 5645 5646 5647 5648 5648 5649 5648 5647 5648 5649 5650 5651 5653 5654
5611 5612 5612 5613 5614 5615 5617 5618 5619 5620 5621 5621 5622 5622 5623 5624 5625 5626 5626 5626 5627 5627 5628 5628 5630 5632 5633 5634 5636 5637 5638 5639 5640 5640 5641 5641 5640 5640 5641 5642 5643 5645 5646
5602 5603 5603 5603 5604 5606 5607 5608 5610 5611 5612 5613 5613 5614 5614 5614 5616 5616 5616 5617 5616 5617 5617 5618 5620 5621 5623 5625 5627 5628 5629 5630 5631 5632 5632 5633 5633 5634 5633 5634 5635 5636 5638
5592 5593 5593 5593 5594 5596 5597 5599 5600 5601 5603 5604 5604 5605 5605 5605 5606 5607 5607 5607 5606 5606 5607 5608 5609 5611 5612 5614 5616 5618 5619 5620 5621 5623 5623 5624 5625 5626 5626 5626 5627 5628 5629
5583 5583 5583 5584 5585 5586 5587 5589 5591 5592 5593 5595 5595 5596 5596 5596 5596 5597 5597 5597 5596 5596 5597 5598 5598 5600 5602 5603 5605 5607 5608 5610 5611 5612 5614 5615 5615 5616 5617 5617 5618 5619 5620
5572 5572 5573 5573 5574 5575 5577 5579 5581 5583 5584 5585 5585 5586 5586 5587 5587 5587 5588 5587 5586 5587 5587 5587 5588 5588 5590 5591 5593 5596 5598 5600 5600 5602 5603 5604 5605 5606 5607 5608 5608 5609 5610
5561 5562 5563 5563 5565 5565 5567 5569 5571 5574 5575 5575 5575 5575 5576 5577 5577 5578 5577 5577 5577 5577 5577 5577 5577 5578 5579 5579 5581 5584 5588 5590 5591 5592 5593 5593 5595 5595 5596 5597 5598 5599 5600
5552 5552 5553 5553 5554 5555 5556 5558 5560 5562 5563 5564 5564 5565 5566 5566 5567 5568 5567 5567 5567 5566 5566 5566 5566 5567 5568 5567 5568 5571 5578 5582 5582 5582 5583 5583 5584 5584 5586 5586 5587 5587 5588
5541 5542 5542 5543 5544 5544 5546 5547 5549 5551 5552 5554 5555 5556 5556 5556 5557 5557 5556 5556 5556 5556 5555 5555 5555 5556 5557 5557 5557 5559 5563 5570 5571 5574 5574 5574 5574 5574 5575 5575 5576 5576 5576
5531 5530 5532 5533 5533 5534 5535 5537 5539 5542 5544 5545 5545 5545 5545 5546 5546 5546 5545 5546 5546 5546 5545 5545 5545 5545 5545 5547 5546 5546 5548 5551 5553 5560 5564 5564 5563 5564 5565 5565 5566 5566 5566
5521 5520 5521 5522 5523 5524 5525 5526 5528 5531 5533 5534 5534 5535 5536 5536 5536 5536 5535 5536 5537 5536 5536 5536 5535 5534 5534 5535 5536 5535 5536 5538 5541 5544 5552 5554 5553 5553 5553 5554 5555 5556 5556
5512 5511 5511 5512 5513 5513 5514 5516 5518 5520 5522 5523 5523 5525 5525 5526 5526 5526 5526 5526 5527 5527 5527 5526 5525 5524 5523 5524 5524 5525 5526 5528 5530 5533 5538 5542 5544 5544 5542 5543 5544 5545 5546